Tracking 29892 objects as of 21-Nov-2024
HD Live streaming from Space Station
objects crossing your sky now

STARLINK-2210

Track STARLINK-2210 now!
10-day predictions
STARLINK-2210 is classified as:


NORAD ID: 47777
Int'l Code: 2021-017BH
Perigee: 553.3 km
Apogee: 555.4 km
Inclination: 53.1 °
Period: 95.6 minutes
Semi major axis: 6925 km
RCS: Unknown
Launch date: March 4, 2021
Source: United States (US)
Launch site: AIR FORCE EASTERN TEST RANGE (AFETR)
Your satellite tracking list
Your tracking list is empty




NASA's NSSDC Master Catalog

Two Line Element Set (TLE):
1 47777U 21017BH  24324.87812591  .00004562  00000-0  32493-3 0  9990
2 47777  53.0528 183.1274 0001524 110.2755 249.8397 15.06406212206182
Source of the keplerian elements: AFSPC